Regional Weather Roundup
Issued by NWS

Home | Current Version | Previous Version | Text Only | Print | Product List | Glossary On
Versions: 1 2 3 4 5 6 7 8 9 10 11 12 13 14 15 16 17 18 19 20 21 22 23 24 25 26
000
ASUS45 KTFX 271810
RWRMT
MONTANA REGIONAL WEATHER ROUNDUP
NATIONAL WEATHER SERVICE GREAT FALLS MT
1200 PM MDT THU JUL 27 2017

NOTE: "FAIR" INDICATES FEW OR NO CLOUDS BELOW 12000 FEET WITH NO
SIGNIFICANT WEATHER AND/OR OBSTRUCTIONS TO VISIBILITY.

MTZ001>007-043-271900-
WEST OF THE DIVIDE

CITY           SKY/WX    TMP DP  RH WIND       PRES   REMARKS
KALISPELL      SUNNY     82  48  30 S5        30.03F
MISSOULA       MOSUNNY   79  51  37 S7        30.08F
BUTTE          SUNNY     78  40  25 NE6       30.21F
MULLAN PASS    MOSUNNY   72  42  34 CALM      30.25R
DEER LODGE       N/A     79  45  29 CALM      30.17F
EUREKA           N/A     90  41  18 MISG      29.99F
HAMILTON         N/A     77  52  41 S7        30.10F
LIBBY            N/A     81  43  26 CALM      29.99F
$$

MTZ008-052>055-271900-
SOUTHWEST MONTANA

CITY           SKY/WX    TMP DP  RH WIND       PRES   REMARKS
BOZEMAN        SUNNY     80  55  42 NW9       30.14F
DILLON         SUNNY     76  49  38 SW5       30.18F
W YELLOWSTONE  CLOUDY    66  55  68 SW3       30.31F
ENNIS          SUNNY     79  46  31 CALM      30.23F
THREE FORKS      N/A     83  50  31 W6        30.10F
$$

MTZ009-010-012-014-046-048-049-054-271900-
EAST SLOPES AND CENTRAL MONTANA

CITY           SKY/WX    TMP DP  RH WIND       PRES   REMARKS
CUT BANK       MOSUNNY   87  32  14 MISG      30.03F
GREAT FALLS    CLOUDY    82  43  25 S3        30.05S
HELENA         CLOUDY    83  49  30 VRB5      30.08F
AUGUSTA          N/A     84  32  15 SW6       30.09S
CHOTEAU          N/A     84  36  17 CALM      30.07F
RAYNESFORD     PTSUNNY   74  48  39 NE7       30.09R
$$

MTZ011-013-016-021-045-047-050-051-271900-
NORTH CENTRAL MONTANA

CITY           SKY/WX    TMP DP  RH WIND       PRES   REMARKS
HAVRE          SUNNY     87  46  24 VRB3      29.97F
LEWISTOWN      CLOUDY    83  46  27 CALM      30.07F
N BAR RANCH      N/A     81  50  34 SE8G15    30.12S
CHINOOK          N/A     82  52  34 E3        29.96F
GEYSER         PTSUNNY   81  43  25 W20       30.07R
JUDITH GAP       N/A     81  44  26 NW3       30.09F
$$

MTZ017>020-022>027-061-062-271900-
NORTHEAST MONTANA

CITY           SKY/WX    TMP DP  RH WIND       PRES   REMARKS
GLASGOW        CLOUDY    82  53  36 SE18      29.99F
JORDAN           N/A     79  50  36 S12       29.99S
SIDNEY         MOSUNNY   80  57  45 SE16G22   30.05F
WOLF POINT     CLOUDY    84  56  38 VRB7G21   30.01F
MALTA          SUNNY     84  52  32 VRB3      29.95F
PLENTYWOOD       N/A     72  57  60 SE13      30.06F
POPLAR           N/A     82  55  39 SE17G25   30.02F
$$

MTZ028>42-056>058-271900-
SOUTHCENTRAL AND SOUTHEAST MONTANA

CITY           SKY/WX    TMP DP  RH WIND       PRES   REMARKS
BAKER          CLOUDY    89  52  28 S17G23    30.05F
BILLINGS       MOSUNNY   84  49  29 S6        30.05F
LIVINGSTON     SUNNY     86  47  25 W16G24    30.11F
MILES CITY     LGT RAIN  78  56  46 SW12      30.02R
BIG TIMBER     SUNNY     84  46  26 W20G26    30.12F
FORSYTH          N/A     82  52  34 W5        29.99F
LAUREL           N/A     85  47  26 SE2       30.03F
$$

REGIONAL REPORTS...DAKOTAS

CITY           SKY/WX    TMP DP  RH WIND       PRES   REMARKS
WILLISTON      PTSUNNY   69  59  70 VRB6      30.02F
MINOT          PTSUNNY   78  57  48 SE7       30.10F
DICKINSON      CLOUDY    81  59  47 E18G25    30.10F
BEACH            N/A     82  55  39 E22G29    30.11F
CROSBY           N/A     79  57  47 S16       30.07F
TIOGA            N/A     66  64  94 S12       30.10F
WATFORD CITY   PTSUNNY   66  59  77 SE15      30.10F
BISMARCK       PTSUNNY   77  62  59 N9        30.14S
GRAND FORKS    PTSUNNY   83  58  42 CALM      30.11S
FARGO          MOSUNNY   81  61  50 N8        30.12S
BUFFALO SD       N/A     85  59  41 SE21G36   30.00F
RAPID CITY     LGT RAIN  64  59  83 SW18      30.17R
$$

REGIONAL REPORTS...WYOMING/IDAHO/WASHINGTON

CITY           SKY/WX    TMP DP  RH WIND       PRES   REMARKS
GILLETTE       SUNNY     87  57  35 SE17      30.07F
SHERIDAN       PTSUNNY   79  56  45 NE6       30.10F
BUFFALO WY     SUNNY     82  54  37 N13G23    30.15F
CODY           SUNNY     83  44  25 SE3G16    30.15
YELLOWSTONE LA   N/A     61  52  72 VRB3      30.39F
IDAHO FALLS    CLOUDY    69  59  70 W7        30.24F
BOISE          SUNNY     85  50  29 VRB3      30.09F
SPOKANE        MOSUNNY   80  51  36 S13       30.04S
$$

REGIONAL REPORTS...ALBERTA

CITY           SKY/WX    TMP DP  RH WIND       PRES   REMARKS
EDMONTON       MOSUNNY   73  61  64 NW2       29.87F
CALGARY        MOSUNNY   86  36  16 S3        29.94F
LETHBRIDGE     MOSUNNY   90  39  17 W18       29.95F
MEDICINE HAT   PTSUNNY   88  52  29 SW15G21   29.93S
CARDSTON         N/A     86  39  19 W8          N/A
MILK RIVER       N/A     88  39  18 W2          N/A
ONEFOUR          N/A     86  48  26 SE9         N/A
$$

REGIONAL REPORTS...SASKATCHEWAN

CITY           SKY/WX    TMP DP  RH WIND       PRES   REMARKS
SWIFT CURRENT  SUNNY     88  48  25 SE21G28   30.00R
REGINA         MOSUNNY   84  59  42 SE15G23   30.03F
SASKATOON      SUNNY     84  59  42 SE8       29.99F
CYPRESS HILLS    N/A     81  46  30 SE9         N/A
$$




USA.gov is the U.S. government's official web portal to all federal, state and local government web resources and services.